User: anonymous
Location: PACMO
(41.3967°N, 90.3760°W)
Time: 08:31:27
(UTC-05:00)
Language:

BREEZE-M DEB (TANK) - Orbit

View from above orbital plane
View from above orbital plane
View from above satellite
View from above satellite

Ground track
Ground track

The orbit data is extracted from the following two-line orbital elements,

1 31863U 07032B   14291.54391017  .00000350  00000-0  22542-3 0  3091
2 31863 045.9618 112.0839 4993462 217.2420 094.7140 05.50806582145830
Epoch (UTC): 18 October 2014 13:03:13
Eccentricity: 0.4993462
inclination: 45.9618°
perigee height: 402 km
apogee height: 13928 km
right ascension of ascending node: 112.0839°
argument of perigee: 217.2420°
revolutions per day: 5.50806582
mean anomaly at epoch: 94.7140°
orbit number at epoch: 14583

The dashed part of the orbit path shows where the satellite is in the earth's shadow,  

DLR